Location: Unspecified
(47.6577°N, 23.5639°E)
Time: 05:05:12
(UTC+02:00)

ISS - Pass Details

Date: 29 January 2017
Orbit: 399 x 408 km, 51.6° (Epoch: 28 February)

Event Time Altitude Azimuth Distance (km) Brightness Sun altitude
Rises 19:29:57 0° 226° (SW) 2,313 1.3 -21.5°
Reaches altitude 10° 19:32:05 10° 219° (SW) 1,454 0.0 -21.9°
Enters shadow 19:33:53 27° 200° (SSW) 812 -1.6 -22.2°
